Regional Weather Roundup
Issued by NWS

Home | Current Version | Previous Version | Graphics & Text | Print | Product List | Glossary On
Versions: 1 2 3 4 5 6 7 8 9 10 11 12 13 14 15 16 17 18 19 20 21 22 23 24 25 26 27 28 29 30 31 32 33 34 35 36 37 38 39 40 41 42 43 44 45 46 47 48 49 50
000
ASUS43 KDMX 281904
RWRIA

WEATHER ROUNDUP FOR IOWA
NATIONAL WEATHER SERVICE DES MOINES IA
  ISSUED BY NWS QUAD CITIES IA IL
100 PM CST WED JAN 28 2015

NOTE: "FAIR" INDICATES FEW OR NO CLOUDS BELOW 12,000 FEET WITH NO
SIGNIFICANT WEATHER AND/OR OBSTRUCTIONS TO VISIBILITY.

* - THESE STATIONS ARE NOT NWS STATIONS...THUS NOT UNDER NWS
QUALITY CONTROL.  THEY ALSO DO NOT REPORT WEATHER SUCH
AS PRECIPITATION OR FOG.

IAZ001>003-012>014-020>022-031>034-043>046-282000-
   NORTHWEST IOWA

CITY           SKY/WX    TMP DP  RH WIND       PRES   REMARKS
CARROLL *      CLOUDY    45  36  70 SE15      29.75F WCI  38
CHEROKEE *     MOCLDY    38  35  87 SE15      29.72F WCI  30
DENNISON *     MOSUNNY   45  36  70 S12       29.72F WCI  39
LE MARS *      PTSUNNY   43  36  75 S12       29.71F WCI  37
ORANGE CITY *  PTSUNNY   41  34  75 SE10      29.70F WCI  35
SHELDON *      PTSUNNY   37  36  93 SE13      29.71F FOG     WCI  29
SIOUX CITY     MOSUNNY   45  34  65 SE12      29.70F WCI  39
SPENCER        CLOUDY    34  30  85 SE13      29.75F FOG     WCI  25
STORM LAKE *   CLOUDY    37  34  87 SE14      29.74F FOG     WCI  29
$$

IAZ055>058-069>071-079>083-090>094-282000-
   SOUTHWEST IOWA

CITY           SKY/WX    TMP DP  RH WIND       PRES   REMARKS
ATLANTIC *     MOSUNNY   48  36  61 S10G21    29.73F
AUDUBON *      MOSUNNY   46  36  66 S13       29.75F
CLARINDA *     SUNNY     57  37  47 SE14      29.76F
COUNCIL BLFS * MOSUNNY   50  36  57 S8        29.72F
CRESTON *      PTSUNNY   48  37  66 S15       29.76F
HARLAN *       MOSUNNY   46  37  71 S12       29.77F
LAMONI         PTSUNNY   49  36  61 S13G24    29.79F
RED OAK *      SUNNY     55  36  47 SE13      29.73F
SHENANDOAH *   SUNNY     59  37  44 S15G22    29.72F
$$

IAZ047>049-059>061-072>074-084-282000-
   CENTRAL IOWA

CITY           SKY/WX    TMP DP  RH WIND       PRES   REMARKS
AMES           PTSUNNY   40  31  70 SE16      29.82F WCI  31
ANKENY *       PTSUNNY   43  34  70 S17       29.81F WCI  35
BOONE *        CLOUDY    39  34  81 SE18      29.78F WCI  30
CHARITON *     PTSUNNY   46  36  66 S18       29.81F
DES MOINES     CLOUDY    46  34  62 SE14      29.81F
GRINNELL *     MOCLDY    39  33  77 SE17      29.87F WCI  30
KNOXVILLE *    MOSUNNY   45  32  61 S16G25    29.82F WCI  37
MARSHALLTOWN   PTSUNNY   38  32  79 SE21      29.85F WCI  28
NEWTON *       PTSUNNY   39  34  81 SE18G25   29.85F WCI  30
PELLA *        PTSUNNY   42  33  71 SE14      29.86F WCI  34
PERRY *          N/A     43  35  72 SE13      29.78F WCI  36
$$

IAZ004>006-015-016-023>025-035-036-282000-
   NORTH CENTRAL IOWA

CITY           SKY/WX    TMP DP  RH WIND       PRES   REMARKS
ALGONA *       CLOUDY    32  32 100 SE16G22   29.79F FOG     WCI  21
CLARION *      MIX PCPN  34  34 100 SE21G28   29.79F WCI  22
ESTHERVILLE    CLOUDY    31  30  96 SE17      29.77F FOG     WCI  19
FORT DODGE *   CLOUDY    36  30  80 SE13G20   29.79F WCI  27
MASON CITY     CLOUDY    33  30  88 SE23G29   29.83F FOG     WCI  21
FOREST CITY *  CLOUDY    34  32  93 SE20      29.80F FOG     WCI  22
WEBSTER CITY * CLOUDY    36  36 100 SE20G26   29.78F WCI  25
IOWA FALLS *   CLOUDY    36  32  85 SE13      29.84F WCI  27
$$

IAZ007>011-017>019-026>030-037>042-050>054-066-282000-
   NORTHEAST IOWA

CITY           SKY/WX    TMP DP  RH WIND       PRES   REMARKS
CEDAR RAPIDS   MOSUNNY   37  30  75 SE21G26   29.92F WCI  26
CHARLES CITY * CLOUDY    34  32  93 SE22G29   29.87F WCI  22
CLINTON *      PTSUNNY   30  21  69 SE22      30.05F WCI  17
DECORAH *      PTSUNNY   34  27  75 SE17G29   29.90F WCI  23
DUBUQUE        CLOUDY    30  21  69 SE20G26   29.99F WCI  17
MONTICELLO *   CLOUDY    32  25  74 SE20      29.97F WCI  20
OELWEIN *      PTSUNNY   36  30  80 SE20G29   29.90F WCI  25
WATERLOO       CLOUDY    36  29  75 SE20G29   29.89F WCI  25
$$

IAZ064-065-067-068-078-282000-
   EAST CENTRAL IOWA

CITY           SKY/WX    TMP DP  RH WIND       PRES   REMARKS
DAVENPORT      CLOUDY    34  24  67 SE22      30.01F WCI  22
IOWA CITY      MOSUNNY   36  29  75 SE21G26   29.96F WCI  25
MT. PLEASANT * MOSUNNY   39  32  74 SE17G29   29.96F WCI  30
MUSCATINE *    PTSUNNY   37  28  70 SE13G23   29.99F WCI  29
QUAD CITIES    PTSUNNY   34  26  72 SE16G23   30.01F WCI  24
$$

IAZ062-063-075>077-085>089-095>099-282000-
   SOUTHEAST IOWA

CITY           SKY/WX    TMP DP  RH WIND       PRES   REMARKS
BURLINGTON     PTSUNNY   41  31  67 S17G25    29.97F WCI  32
FAIRFIELD *    MOSUNNY   41  32  70 S20G26    29.92F WCI  32
FORT MADISON * MOSUNNY   39  32  75 S17G28    29.97F WCI  30
KEOKUK *       MOSUNNY   45  32  61 SE15G23   29.96F WCI  38
OTTUMWA        MOSUNNY   42  32  67 S17       29.88F WCI  34
WASHINGTON *   MOSUNNY   41  37  87 SE21      29.94F WCI  32
$$

ABBREVIATIONS USED IN REMARKS
   TC - TEMPERATURES IN CELSIUS
  WCI - WIND CHILL INDEX
   HX - HEAT INDEX
  VSB - VISIBILITY
$$


USA.gov is the U.S. government's official web portal to all federal, state and local government web resources and services.